Flag for Senegal Weather past 2 weeks in Thiès, Senegal

Now
81 °F

Thunderstorms. Passing clouds.


Feels Like: 85 °F
Forecast: N/A
Wind: 3 mph from East

Location: Dakar / Yoff

Current Time: Sep 19, 2014 at 8:55:23 PM

Latest Report: Sep 19, 2014 at 8:30 PM


Visibility: N/A

Pressure: 29.86 "Hg

Humidity: 79%

Dew point: 73 °F

Location of ThièsLocation

Historic Weather in Thiès — Graph

°F

Thiès temperature yesterday

Maximum temperature yesterday: 86 °F (at 10:30 AM)
Minimum temperature yesterday: 79 °F (at 1:30 AM)
Average temperature yesterday: 82 °F

Past Weeks' High & Low Weather Summary

 TemperatureHumidityPressure
High88 °F (Sep 5, 4:00 PM)100% (Sep 9, 11:30 PM)30.04 "Hg (Sep 9, 11:30 PM)
Low72 °F (Sep 19, 1:00 AM)62% (Sep 13, 9:30 AM)29.74 "Hg (Sep 7, 4:30 PM)
Average82 °F82%29.88 "Hg
* Reported Sep 4 8:00 PM — Sep 19 8:00 PM, Thiès, Weather by CustomWeather, © 2014

Note: Actual official high and low records may vary slightly from our data, if they occured in-between our weather recording intervals... More about our weather records

Advertising

Thiès weather history for previous 24 hours

 ConditionsComfort  
Time TempWeatherWind HumidityBarometerVisibility
8:00 PM
Sep 19
81 °FThunderstorms. Passing clouds.3 mph79%29.86 "HgN/A
7:30 PM81 °FPassing clouds.2 mph79%29.83 "HgN/A
7:00 PM81 °FBroken clouds.3 mph79%29.83 "HgN/A
6:30 PM81 °FPartly sunny.7 mph79%29.83 "HgN/A
6:00 PM81 °FPartly sunny.7 mph79%29.83 "HgN/A
5:30 PM81 °FPartly sunny.8 mph79%29.80 "HgN/A
5:00 PM81 °FPartly sunny.8 mph79%29.80 "Hg6 mi
4:30 PM82 °FPartly sunny.10 mph70%29.80 "Hg6 mi
4:00 PM81 °FLight rain. Partly sunny.9 mph79%29.80 "Hg6 mi
3:30 PM81 °FLight rain. Partly sunny.8 mph84%29.80 "Hg6 mi
3:00 PM79 °FLight rain. Partly sunny.7 mph89%29.83 "Hg5 mi
2:30 PM79 °FLight rain. Partly sunny.7 mph89%29.80 "Hg5 mi
2:00 PM79 °FLight rain. Broken clouds.5 mph89%29.80 "Hg5 mi
1:30 PM79 °FLight rain. Broken clouds.6 mph89%29.83 "Hg5 mi
1:00 PM79 °FLight rain. Broken clouds.7 mph84%29.86 "Hg5 mi
12:30 PM79 °FLight rain. Broken clouds.10 mph84%29.86 "Hg5 mi
12:00 PM79 °FBroken clouds.10 mph79%29.89 "HgN/A
11:30 AM79 °FBroken clouds.14 mph74%29.92 "HgN/A
11:00 AM79 °FScattered clouds.15 mph79%29.92 "HgN/A
10:30 AM77 °FBroken clouds.17 mph83%29.95 "HgN/A
10:00 AM77 °FLight rain. Broken clouds.15 mph89%29.92 "Hg5 mi
9:30 AM77 °FBroken clouds.12 mph89%29.92 "HgN/A
9:00 AM79 °FPartly sunny.7 mph79%29.89 "HgN/A
8:30 AM79 °FPartly sunny.6 mph79%29.89 "HgN/A
8:00 AM77 °FBroken clouds.5 mph83%29.86 "HgN/A
7:30 AM77 °FBroken clouds.5 mph83%29.86 "HgN/A
7:00 AM77 °FBroken clouds.3 mph83%29.83 "HgN/A
6:30 AM77 °FPartly cloudy.2 mph83%29.83 "HgN/A
6:00 AM77 °FPartly cloudy.3 mph89%29.83 "HgN/A
5:30 AM77 °FPassing clouds.3 mph89%29.83 "HgN/A
5:00 AM77 °FPartly cloudy.2 mph89%29.83 "HgN/A
4:30 AM77 °FThunderstorms. Partly cloudy.9 mph83%29.83 "HgN/A
4:00 AM77 °FThunderstorms. Passing clouds.8 mph89%29.83 "Hg5 mi
3:30 AM77 °FThunderstorms. Passing clouds.5 mph89%29.83 "Hg5 mi
3:00 AM75 °FThunderstorms. Passing clouds.3 mph94%29.83 "Hg5 mi
2:30 AM73 °FThunderstorms. Passing clouds.1 mph94%29.83 "Hg4 mi
2:00 AM73 °FThunderstorms. Passing clouds.3 mph94%29.83 "Hg4 mi
1:30 AM73 °FThunderstorms. Partly cloudy.3 mph94%29.86 "Hg4 mi
1:00 AM72 °FThunderstorms. Partly cloudy.12 mph100%29.89 "Hg2 mi
12:30 AM75 °FThunderstorms. Passing clouds.17 mph89%29.92 "Hg4 mi
12:00 AM82 °FThunderstorms. Passing clouds.8 mph89%29.86 "HgN/A
11:30 PM
Sep 18
82 °FThunderstorms. Passing clouds.7 mph89%29.89 "HgN/A
11:00 PM82 °FThunderstorms. Passing clouds.9 mph89%29.89 "HgN/A
10:30 PM82 °FThunderstorms. Passing clouds.8 mph89%29.89 "HgN/A
10:00 PM82 °FPassing clouds.7 mph89%29.86 "HgN/A
9:30 PM82 °FPassing clouds.7 mph84%29.83 "HgN/A
9:00 PM82 °FPassing clouds.7 mph84%29.83 "HgN/A
8:30 PM82 °FPassing clouds.6 mph84%29.83 "HgN/A
8:00 PM82 °FPassing clouds.7 mph84%29.83 "HgN/A
Weather by CustomWeather, © 2014

See weather overviewHow to use our weather pages